C/2007 T5 ( Gibbs )

Japanese version
Home page
Total 5,708 html files since Dec. 4, 1995
Updated on April 20, 2008

---------------------------------------------------------------------

* Profile

Discovery Date October 13, 2007
Magnitude 18.2 mag
Discoverer A. R. Gibbs (Catalina Sky Survey)

* Pictures

* Orbital Elements

Epoch 2008 May 14.0 TT = JDT 2454600.5
T 2008 May 24.17653 TT                                  MPC
q   4.0493399            (2000.0)            P               Q
z  +0.0213866      Peri.   34.40574     -0.65183029     -0.35104034
 +/-0.0000010      Node   109.84287     +0.42831225     -0.90191446
e   0.9133983      Incl.   45.61513     +0.62583216     +0.25163661

* Finding Charts

* Magnitudes Graph

        m1 = 8.5 + 5 log d + 10.0 log r

---------------------------------------------------------------------

The orbital elements are published on M.P.E.C. 2007-Y07.
The charts are made with StellaNavigator Ver.8 (AstroArts).
The magnitudes graphs are made with Comet for Windows.

---------------------------------------------------------------------

Copyright(C) 1995-2007 Seiichi Yoshida (comet@aerith.net). All rights reserved.